Regional Weather Roundup
Issued by NWS State College, PA

Home | Current Version | Previous Version | Text Only | Print | Product List | Glossary Off
Versions: 1 2 3 4 5 6 7 8 9 10 11 12 13 14 15 16 17 18 19 20 21 22 23 24 25 26 27 28 29 30 31 32 33 34 35 36 37 38 39 40 41 42 43 44 45 46 47 48 49 50

000
ASUS41 KCTP 271003
RWRCTP

REGIONAL WEATHER ROUNDUP
NATIONAL WEATHER SERVICE STATE COLLEGE PA
600 AM EDT MON MAR 27 2017

Note: "fair" indicates few or no clouds below 12,000 feet with no
significant weather and/or obstructions to visibility.

* = STATION THAT DOES NOT REPORT PRECIPITATION /E.G. RAIN...SNOW...ETC/
    THUNDER OR FOG.

PAZ002>004-007>009-013>016-020>023-029>032-271100-
WESTERN PENNSYLVANIA

CITY           SKY/WX    TMP DP  RH WIND       PRES   REMARKS
ERIE           CLOUDY    52  49  89 S14       29.89R
MEADVILLE      CLOUDY    51  32  48 VRB5      29.91R
FRANKLIN*      CLOUDY    48  46  93 S8        29.94R
NEW CASTLE     PTSUNNY   53  52  96 S5        29.94R
BEAVER COUNTY  NOT AVBL
BUTLER*        MOCLDY    54  50  87 SW5       29.95S
PITTSBURGH INT MOCLDY    55  54  96 SW5       29.94R
PITTSBURGH     CLOUDY    54  51  90 S6        29.94S
INDIANA*       CLOUDY    48  48 100 S7        29.99S
LATROBE        LGT RAIN  52  52 100 CALM      29.97S
WASHINGTON CO* MOCLDY    54  52  94 S5        29.97S
$$

PAZ004>006-010>012-017>019-024>028-033>037-041-042-045-046-049>053-271100-
CENTRAL PENNSYLVANIA

CITY           SKY/WX    TMP DP  RH WIND       PRES   REMARKS
BRADFORD       CLOUDY    42  41  96 S9        29.93F
DUBOIS         CLOUDY    44  42  93 SE7       29.94S
CLEARFIELD       N/A    N/A N/A N/A MISG      30.00S
JOHNSTOWN      LGT RAIN  44  44 100 SE7       29.98S
ALTOONA        CLOUDY    45  44  97 CALM      30.02F
STATE COLLEGE  RAIN      41  39  93 SW6       30.04S
WILLIAMSPORT   LGT RAIN  41  39  93 NW5       30.08R
SELINSGROVE    CLOUDY    40  39  97 S5        30.09R
FT INDIANTOWN  CLOUDY    39  39 100 NE3       30.10F
CAPITAL CITY   CLOUDY    43  40  89 E5        30.09F
HARRISBURG     LGT RAIN  42  41  96 E5        30.09F
YORK           LGT RAIN  42  42 100 SE5       30.08F FOG
$$

PAZ038>040-043-044-047-048-054-055-060>062-067>071-271100-
EASTERN PENNSYLVANIA

CITY           SKY/WX    TMP DP  RH WIND       PRES   REMARKS
SCRANTON       CLOUDY    40  39  97 CALM      30.05F
MOUNT POCONO   MIX PCPN  32  32 100 SE7       30.05F VSB 3/4
ALLENTOWN      LGT RAIN  41  38  89 E5        30.11F FOG
QUAKERTOWN*    CLOUDY    39  39 100 E5        30.11F
READING        LGT RAIN  41  41 100 CALM      30.10F
LANCASTER      RAIN      42  42 100 CALM      30.10S FOG
COATESVILLE    FOG       41  41 100 E5        30.10F VSB<1/4
POTTSTOWN      LGT RAIN  39  39 100 CALM      30.12F FOG
BLUE BELL      CLOUDY    39  39 100 E5        30.10F VSB 3/4
DOYLESTOWN     LGT RAIN  39  39 100 VRB3      30.10F FOG
WILLOW GROVE   NOT AVBL
NORTH PHILA    FOG       42  41  96 E9        30.13F VSB 3/4
PHILADELPHIA   FOG       42  41  96 E7        30.12F VSB 3/4
$$




USA.gov is the U.S. government's official web portal to all federal, state and local government web resources and services.